RH
86 83 86 85 81 76 75 81 85 83 84 86 82 72 66 62 58 67 82 77 61 58 57 47 40 39 42 43 38 33 31 30 29 31 31 30 29 27 23 22 23 24 23 21 18 14 12 14 15 11 10 10 10 12 20 29 30 31 38 41 41 35 37 45 29 14 13 16 17 15 15 16 17 18 18 18 17 18 19 20 22 26 29 30 31
76 77 81 76 73 74 72 72 77 77 77 76 71 70 70 61 55 64 74 69 57 52 48 40 36 36 35 33 32 31 26 25 25 24 25 22 22 21 20 18 18 18 17 16 15 14 13 13 13 12 13 12 10 13 19 28 32 29 34 38 40 40 48 50 27 18 18 15 16 12 12 13 13 13 13 12 12 12 12 12 14 16 18 19 22
71 73 74 72 71 74 73 68 75 79 74 72 71 72 71 59 54 55 56 58 50 43 39 35 36 34 34 34 32 29 23 22 23 25 25 20 19 19 19 18 18 18 17 17 16 15 15 14 13 13 12 11 8 13 19 24 29 27 32 37 39 42 55 54 32 28 25 15 13 12 11 12 12 12 12 11 11 10 10 10 10 11 12 13 15
74 78 75 76 77 70 71 70 71 71 65 67 67 65 61 52 52 53 50 51 45 42 40 35 36 36 38 36 31 27 24 24 24 26 25 21 21 20 20 20 20 20 19 19 18 18 20 17 15 14 10 11 9 15 21 23 27 28 30 33 40 47 56 58 46 38 28 15 12 10 10 11 11 11 11 11 10 10 9 9 10 10 10 11 12
71 77 72 75 79 64 59 59 55 56 59 61 61 62 60 48 44 47 46 43 39 39 37 33 36 39 39 35 31 30 32 32 28 25 23 23 23 22 22 21 21 21 21 20 20 20 18 16 18 14 9 12 12 16 22 24 27 29 30 33 44 52 56 60 55 43 29 21 15 11 10 10 10 10 10 10 10 9 9 9 9 9 10 10 11
65 67 68 70 72 55 45 50 51 54 56 54 55 59 57 44 33 35 36 34 32 32 33 32 34 37 37 35 34 37 41 39 32 28 26 25 25 24 23 22 23 22 22 21 22 21 18 17 18 14 12 13 13 16 22 27 30 32 35 35 47 57 61 62 58 48 34 26 21 13 10 10 9 10 9 9 10 9 9 9 9 9 10 11 11
65 63 65 62 58 46 40 47 49 49 49 49 47 46 42 34 25 25 28 28 29 30 32 32 32 34 36 37 37 39 40 38 35 33 33 32 31 29 25 24 24 24 23 22 22 20 20 20 18 14 14 15 15 16 20 30 32 35 39 35 46 62 70 66 58 55 42 32 27 18 12 10 9 9 9 9 9 9 9 9 9 9 10 11 11
55 53 53 49 45 38 34 37 40 42 42 40 36 31 26 23 22 23 25 27 29 31 32 30 30 32 36 39 39 41 42 41 41 41 42 40 37 34 30 27 26 25 24 23 22 21 21 22 21 17 14 14 18 19 21 31 34 36 40 39 44 55 67 67 63 61 44 34 34 24 14 10 10 9 9 10 10 11 10 10 10 10 10 11 12
39 39 40 39 36 32 30 30 35 39 33 26 24 23 20 21 25 26 26 27 28 31 32 32 33 34 37 40 41 44 47 47 47 47 46 43 40 38 35 33 31 29 26 25 23 23 23 22 22 21 17 13 17 24 25 30 35 38 43 45 46 49 59 63 66 65 41 31 38 28 15 11 11 11 11 12 14 15 14 13 12 12 11 12 13
31 31 34 36 33 31 29 26 28 29 21 17 18 19 19 22 26 26 25 24 26 31 33 35 37 37 38 40 41 43 45 46 45 45 44 42 41 39 38 37 37 35 33 30 27 25 25 23 23 23 21 19 19 24 28 31 33 38 45 48 49 50 57 58 60 64 44 34 41 30 15 12 12 14 15 17 20 21 20 18 15 14 13 13 13
28 26 28 31 32 34 32 26 23 21 18 17 18 20 21 21 23 24 24 25 28 31 34 36 37 36 35 35 37 38 40 40 39 40 40 39 38 37 37 37 37 38 38 37 34 32 29 27 24 22 23 25 24 24 31 37 34 31 40 50 51 46 51 56 55 59 52 41 40 31 16 12 13 16 19 22 26 27 26 24 20 17 15 14 15
27 28 32 33 33 36 36 32 26 22 23 22 23 23 23 24 24 25 26 29 30 31 34 36 36 33 31 31 33 35 36 35 36 37 36 35 35 35 36 36 37 36 36 36 36 36 36 34 30 25 23 24 25 26 30 38 41 34 35 44 51 47 45 52 55 54 53 45 37 30 18 12 13 17 22 25 30 33 31 29 25 21 18 16 16
34 37 40 39 38 36 35 34 30 29 30 29 28 28 27 26 25 26 25 27 30 31 33 33 32 30 29 30 31 33 34 34 35 36 36 36 36 36 38 38 38 38 38 36 34 34 35 37 37 34 29 24 22 24 25 30 40 44 42 40 46 51 47 51 59 56 52 46 36 30 21 13 13 16 22 26 31 36 37 34 30 26 22 19 17
40 42 40 41 43 40 36 34 34 33 34 32 30 29 27 25 25 26 24 25 27 29 31 30 28 28 29 30 31 33 35 36 37 38 38 38 37 37 38 42 43 43 43 42 41 42 40 37 37 39 39 34 26 22 21 23 30 39 46 45 44 49 51 54 58 54 49 46 38 36 29 16 13 16 19 25 30 35 39 38 35 31 26 22 20
41 43 39 42 44 44 41 37 36 34 33 30 26 25 23 22 23 23 22 23 26 28 29 28 28 29 30 32 34 37 39 40 41 42 42 40 38 37 39 44 48 49 50 48 49 52 53 46 40 36 38 40 37 30 24 24 25 30 37 43 45 44 49 55 53 47 43 42 42 45 41 24 13 15 18 20 27 33 38 39 36 34 30 26 22
40 42 40 43 43 43 41 35 32 30 27 23 21 20 20 20 20 20 21 24 27 28 27 27 27 27 29 33 37 39 39 39 40 41 41 39 38 37 41 48 52 55 55 53 54 57 57 55 48 39 35 37 40 40 36 34 31 31 32 36 42 44 47 50 47 42 40 42 47 53 55 45 23 14 18 17 22 29 34 38 36 34 31 29 26
38 40 39 40 39 38 35 31 28 24 21 20 20 18 19 21 21 22 23 26 27 25 25 25 22 22 25 28 31 34 35 34 35 35 36 37 38 39 42 50 55 56 57 54 54 57 57 58 56 49 42 37 38 41 45 48 45 42 38 33 35 40 45 47 46 44 43 42 47 51 53 59 39 15 16 17 18 24 30 34 35 33 30 30 28
31 34 34 35 33 32 31 29 26 23 20 18 18 21 23 20 18 20 22 23 23 22 23 23 21 25 30 30 32 35 38 39 37 37 37 38 46 54 54 56 61 64 65 59 53 53 54 57 59 57 52 46 42 39 42 50 55 55 50 43 36 33 34 38 45 47 45 43 48 50 48 60 52 21 14 17 17 19 24 29 32 32 30 29 28
21 27 29 30 28 26 23 22 22 22 23 22 23 27 24 17 12 11 13 15 17 22 28 31 32 37 39 40 45 49 48 46 45 42 40 43 53 67 72 71 70 71 72 69 62 57 54 55 58 60 61 59 54 48 45 48 54 59 58 55 50 41 33 31 36 40 42 44 47 52 54 63 58 34 20 16 16 18 19 24 29 30 30 30 28
23 24 25 24 24 24 23 24 22 23 28 33 34 31 22 16 12 10 12 14 20 30 37 38 39 42 44 46 51 57 57 52 51 47 45 53 61 70 80 79 69 66 73 74 66 62 64 64 62 62 65 66 66 67 64 58 57 59 61 62 61 55 48 42 39 36 33 37 44 52 56 57 54 47 40 27 17 18 19 22 26 28 30 31 30
29 23 22 20 23 26 26 28 28 28 32 36 37 32 27 19 14 17 21 23 28 36 39 38 46 50 45 46 48 52 57 53 50 46 44 50 56 63 72 70 59 59 69 70 61 64 77 78 73 70 72 74 71 75 80 77 71 65 64 68 68 62 57 56 58 52 37 31 37 47 46 42 40 45 53 46 29 21 20 22 25 28 30 32 32
32 24 21 19 20 19 18 28 37 37 36 35 31 25 24 17 15 26 31 33 38 39 36 36 52 58 43 41 45 49 54 50 43 38 37 42 49 54 58 59 54 55 61 60 55 61 76 81 79 77 79 81 77 77 81 84 83 77 72 72 75 71 67 68 70 68 56 40 30 35 42 40 36 38 50 55 46 31 23 24 25 28 31 34 34
34 28 28 27 20 13 18 35 42 39 38 36 29 20 15 15 21 33 36 41 51 48 34 30 44 46 36 37 40 45 50 50 47 41 41 48 56 58 56 57 57 58 60 61 54 49 57 64 69 73 75 75 72 74 79 82 84 83 78 75 77 76 76 78 77 73 70 62 44 37 46 47 40 40 48 55 55 41 27 25 27 29 32 35 36
35 35 39 42 31 19 25 38 39 40 45 39 30 20 13 18 27 35 37 41 53 54 38 26 32 33 33 38 39 41 46 49 52 51 51 54 58 57 54 53 52 55 59 65 62 50 50 57 67 78 84 82 71 66 72 80 80 80 78 76 77 74 72 74 78 77 74 74 67 54 51 51 47 44 48 56 62 50 31 26 27 29 33 36 38
38 37 38 40 34 27 30 35 33 37 42 36 29 19 16 25 29 32 34 35 45 54 47 30 28 34 34 37 38 38 38 41 44 44 47 49 49 48 50 49 45 48 56 67 69 62 60 63 66 68 73 80 78 67 62 71 75 75 74 71 71 69 69 71 72 74 74 73 75 70 59 55 55 50 44 55 68 53 33 28 27 27 32 36 38
41 37 32 30 27 31 36 34 30 32 34 30 27 19 20 26 20 19 23 30 36 38 37 24 20 28 26 26 29 26 24 27 29 33 36 41 44 45 49 49 44 45 54 61 57 48 45 43 39 36 37 48 67 70 60 60 64 65 65 64 63 63 69 77 73 71 71 67 72 81 74 60 58 54 42 51 67 53 33 30 29 27 29 35 38
43 37 30 22 17 28 35 30 27 32 30 23 24 22 22 21 12 7 10 21 25 17 17 16 16 21 17 16 17 15 20 24 22 26 32 37 42 42 41 40 38 39 43 44 37 26 23 22 20 21 23 30 51 66 60 55 55 54 52 52 54 57 65 76 77 73 70 65 71 84 86 70 57 52 42 49 68 58 37 32 32 29 26 31 37
31 28 22 13 7 13 16 12 13 21 23 19 22 24 16 10 6 5 11 18 15 12 18 21 22 23 18 17 16 12 21 29 20 17 27 35 39 38 34 33 31 30 27 23 18 14 14 15 16 18 19 25 42 60 64 61 60 60 57 52 51 56 64 71 75 76 71 63 70 83 85 74 58 50 45 54 71 62 41 32 34 33 28 27 33
19 18 16 13 10 7 1 2 5 8 13 13 13 15 7 4 6 7 17 21 12 14 26 27 21 17 17 19 21 18 23 31 19 8 17 28 33 33 31 30 28 28 26 19 15 13 8 8 11 15 16 19 31 49 62 69 73 73 69 61 56 62 66 64 68 78 73 57 62 75 76 70 57 48 46 53 64 60 47 36 34 36 33 28 28
19 20 18 16 16 13 5 5 10 6 4 4 1 5 5 6 9 10 20 26 18 17 27 28 18 13 16 18 22 24 27 31 23 14 15 21 24 22 20 21 20 22 21 18 19 16 7 4 5 8 10 12 18 28 37 50 67 78 75 62 54 62 67 62 63 71 72 58 53 61 69 67 55 48 45 46 52 55 51 40 34 36 37 34 29
19 20 16 11 10 12 8 6 8 5 2 3 3 4 4 6 9 13 27 36 33 30 28 24 16 13 18 18 20 22 22 23 23 23 21 20 19 15 15 16 15 13 11 10 14 12 6 2 1 3 6 7 10 13 12 15 30 48 60 60 56 62 71 74 72 70 67 60 52 52 64 68 60 55 49 44 49 53 50 41 35 35 38 39 34
12 12 10 7 6 7 8 6 5 6 5 5 6 6 4 6 11 15 30 42 44 36 26 21 14 8 13 14 15 15 14 14 16 18 17 16 14 12 13 14 12 10 8 8 8 7 4 1 0 2 3 5 6 6 4 0 3 9 21 35 45 55 65 72 74 73 68 60 53 50 59 66 59 53 50 48 51 53 52 47 39 35 37 41 38
6 5 5 7 8 7 7 7 6 6 8 6 5 5 2 5 13 16 23 32 31 23 19 20 11 3 6 8 8 9 9 9 9 11 11 9 8 8 8 9 9 7 6 7 8 7 5 2 2 3 3 5 4 3 1 -0 0 -0 0 5 13 22 30 34 39 55 68 62 50 46 54 65 60 49 48 49 49 52 56 56 50 40 36 38 40
3 1 1 5 9 6 4 5 4 5 6 5 3 2 1 6 16 18 16 15 14 15 19 19 9 3 4 4 5 7 7 7 7 7 7 5 5 6 6 6 6 6 6 6 8 8 6 4 3 3 4 4 4 2 1 0 0 1 1 -0 -0 1 3 5 8 24 53 65 52 39 44 59 62 56 56 54 47 48 55 60 60 53 42 36 36
2 2 1 4 7 4 1 1 3 5 4 3 2 1 2 9 21 21 14 7 6 10 12 10 10 7 4 5 6 7 8 8 7 6 5 5 5 5 5 6 5 5 6 6 7 8 7 7 5 5 5 5 6 5 4 4 4 3 2 2 1 0 -1 0 0 4 28 58 57 38 34 49 59 60 63 62 54 50 54 58 58 58 53 41 32
4 5 4 6 7 4 3 3 2 4 2 1 1 1 7 17 24 21 12 6 5 7 5 5 8 7 5 7 7 8 8 8 8 7 5 5 5 6 5 5 6 6 6 6 6 7 7 7 7 7 6 6 7 8 8 7 7 6 5 4 3 2 1 -0 1 -1 7 36 54 44 35 43 54 58 60 64 65 56 55 58 54 53 56 47 34
5 5 5 6 5 3 5 5 4 4 1 1 3 5 11 16 17 11 5 4 5 6 6 6 6 6 7 7 7 8 8 8 8 8 7 7 6 6 6 6 6 6 6 7 6 6 7 6 6 6 6 6 6 6 7 6 6 5 5 6 6 5 4 2 1 1 -1 11 34 47 48 50 54 56 55 61 67 60 56 58 55 52 53 47 38
4 4 5 5 5 6 5 3 6 8 5 5 8 9 9 8 7 3 2 4 5 6 6 7 7 7 7 7 8 7 7 7 8 8 8 7 7 7 7 7 7 7 7 7 7 7 7 7 7 6 6 6 6 6 5 5 5 6 5 5 6 6 7 5 3 4 4 3 12 29 46 57 62 64 59 53 53 54 54 56 57 56 52 45 40
4 4 5 5 5 7 5 4 8 9 8 8 8 8 8 7 6 4 5 5 6 7 7 8 8 7 7 7 7 6 7 7 7 8 8 8 8 8 8 8 8 8 8 7 7 7 7 8 7 7 7 7 7 6 6 6 5 5 6 5 5 6 6 7 7 6 8 8 9 13 26 43 58 71 74 61 50 50 49 49 52 53 51 46 40
4 5 6 6 6 7 7 7 8 7 7 8 7 9 10 9 8 7 7 7 7 8 8 9 8 8 8 7 7 7 7 7 7 8 8 9 9 9 9 9 10 10 9 9 8 8 8 8 8 8 8 7 7 7 6 6 6 6 6 6 6 7 7 7 8 9 9 10 10 10 13 23 37 57 79 80 66 56 53 50 47 48 55 60 56
4 5 7 8 7 8 8 8 8 8 8 8 8 9 9 9 9 8 8 8 9 9 9 9 8 9 8 8 8 8 8 7 8 8 8 9 9 9 9 10 11 11 11 11 10 10 9 8 9 8 8 8 8 7 7 7 6 6 5 6 6 6 8 8 7 8 9 10 9 9 8 11 17 31 59 84 85 71 63 61 56 54 61 69 70
6 7 7 9 8 8 9 8 8 8 8 9 9 10 10 10 9 9 9 9 9 10 10 10 9 9 9 9 9 9 9 9 8 8 8 8 8 9 9 10 10 10 11 11 11 11 11 10 9 9 9 8 8 8 8 8 7 7 6 6 5 4 5 5 7 7 7 8 8 8 7 6 8 12 28 60 88 90 78 72 69 63 63 70 75
7 7 7 7 8 8 9 9 9 9 9 9 10 10 10 9 9 9 9 10 10 11 11 11 11 11 10 10 10 10 10 10 10 10 9 9 9 9 9 10 10 10 11 11 11 12 11 12 11 11 10 9 9 9 9 9 8 8 7 6 5 5 5 4 4 6 6 7 6 8 8 8 10 10 12 26 58 84 87 83 80 74 73 79 84
6 6 7 7 7 8 9 9 9 9 9 8 8 9 8 8 8 8 9 9 10 10 10 11 11 11 11 10 10 10 10 11 11 11 11 11 11 11 11 11 11 11 11 11 11 11 12 12 12 12 12 11 11 10 10 10 10 9 9 8 7 7 9 6 3 4 6 7 6 6 7 9 11 13 12 11 24 45 60 74 81 81 81 80 83
5 5 5 5 6 7 8 8 9 8 8 8 8 8 8 7 7 7 8 8 8 9 9 9 10 10 9 10 10 9 10 10 10 11 12 12 12 12 12 12 12 12 12 12 11 11 12 12 12 13 13 12 12 12 12 11 11 11 10 10 9 8 8 6 6 5 6 7 8 9 9 11 13 14 14 11 13 17 26 45 61 73 81 78 83
5 5 5 5 6 6 7 7 8 8 8 8 8 8 8 8 8 7 7 7 7 8 8 8 8 9 8 9 9 9 9 9 9 10 10 11 12 13 13 13 13 13 13 13 12 12 12 12 12 13 13 13 13 13 13 13 13 12 11 11 10 9 8 8 8 8 7 7 8 10 12 14 17 18 18 15 14 14 13 19 31 47 62 64 75
5 5 4 5 4 5 6 6 7 8 8 8 8 8 9 9 9 9 8 8 7 7 7 7 7 7 8 8 8 8 8 8 8 9 9 10 10 11 12 13 13 14 14 14 14 13 12 12 12 12 12 13 13 13 13 13 13 13 13 13 12 11 10 9 10 9 7 7 7 8 10 13 16 19 22 22 19 18 17 15 15 21 30 37 55
8 6 5 5 5 5 4 5 6 6 6 7 8 8 9 10 10 10 9 9 8 8 7 7 7 7 7 7 7 8 8 8 8 8 8 8 9 10 11 12 13 14 14 15 15 14 14 13 13 13 13 12 13 13 13 13 13 14 14 14 13 13 12 11 11 10 9 7 7 6 6 8 13 16 20 23 24 23 22 21 18 14 13 18 33
10 8 7 6 5 6 5 5 5 5 5 6 6 7 8 8 8 9 9 9 9 9 8 8 7 7 7 7 7 7 7 7 8 8 7 7 7 8 9 11 12 13 15 16 16 16 16 15 15 14 13 13 13 13 13 14 14 14 14 14 14 13 13 13 12 11 11 9 9 8 7 6 8 12 15 18 21 22 23 24 25 21 15 13 18
10 11 12 11 10 9 6 4 2 2 2 2 3 4 4 5 6 5 7 8 8 8 9 8 8 7 7 7 7 7 7 7 7 7 7 7 7 8 9 10 12 13 15 16 17 17 17 17 16 16 15 14 14 14 13 14 14 15 15 15 15 14 14 14 14 13 12 12 11 10 10 8 6 8 11 14 17 18 19 21 24 26 23 18 16
9 11 12 13 13 10 6 3 1 1 1 2 2 1 2 2 3 5 5 6 7 8 8 8 8 8 7 7 7 7 7 7 7 6 6 6 7 8 9 10 11 13 15 17 18 18 18 18 18 17 17 16 15 15 14 14 14 15 15 15 15 15 15 15 14 14 13 13 12 14 14 12 10 8 8 11 14 16 17 17 18 21 24 23 19
Wind_Speed
18 18 20 20 19 19 19 18 17 16 15 14 15 14 13 12 13 13 14 13 15 15 14 13 12 12 11 10 10 9 9 8 8 9 9 9 9 8 7 7 6 6 6 6 6 5 4 4 5 5 6 6 6 6 7 7 7 7 9 10 8 6 7 10 12 13 11 10 10 12 13 14 16 17 17 17 17 17 16 16 15 14 14 13 13
19 19 19 19 17 17 19 18 15 15 14 14 13 13 13 12 13 13 12 11 14 13 12 13 12 11 10 9 9 9 8 8 8 9 9 9 8 7 7 6 5 5 5 5 5 4 4 4 5 5 5 5 5 5 6 6 7 7 8 9 7 5 7 9 11 12 10 10 11 13 14 14 15 16 17 16 17 16 16 15 14 14 13 13 12
18 17 17 17 17 17 18 16 14 14 14 13 13 14 13 12 12 12 11 10 12 12 11 12 11 10 10 9 9 8 9 9 9 9 10 9 8 7 6 5 5 4 4 4 4 3 3 4 4 4 3 4 5 5 5 6 7 8 8 8 6 5 7 7 9 9 9 9 10 13 14 14 14 15 16 15 15 15 15 14 13 13 12 12 11
17 17 16 16 18 18 16 15 14 14 14 13 14 14 13 11 12 11 10 10 11 11 11 11 10 10 9 9 9 9 9 10 10 10 10 9 9 7 6 5 4 4 4 4 4 4 3 3 3 3 2 3 4 5 5 5 6 7 7 5 4 5 7 7 7 7 8 8 9 11 12 12 13 13 14 14 14 14 14 13 12 12 12 11 10
16 16 14 15 16 16 14 15 15 15 14 13 13 13 12 11 11 11 10 10 10 10 10 10 9 8 8 8 8 9 9 10 10 9 9 9 8 7 6 5 4 5 5 6 6 5 4 3 2 2 1 2 4 6 6 4 4 6 6 5 4 6 7 6 7 7 7 7 7 9 10 10 11 11 13 14 13 12 13 12 11 11 11 11 10
17 15 13 14 14 13 13 15 15 15 14 12 11 11 11 10 10 9 8 8 8 7 8 8 7 7 8 8 8 9 9 9 9 9 8 8 7 6 5 5 5 6 7 8 7 6 5 4 3 2 2 2 4 7 7 4 3 5 4 4 6 8 8 5 7 8 8 6 7 7 8 10 10 10 11 13 12 11 11 11 10 10 10 10 10
18 15 13 14 13 12 12 14 14 14 12 10 10 9 9 8 7 7 7 7 6 6 6 6 7 7 7 8 8 9 9 9 9 8 8 8 7 7 7 7 8 8 9 9 9 8 8 7 6 4 4 4 4 6 7 3 3 5 4 4 7 10 11 6 8 8 8 6 6 6 7 9 10 10 11 12 12 11 11 11 10 10 10 10 10
17 15 14 13 13 12 12 13 13 12 11 9 8 8 7 6 5 6 6 6 6 6 6 6 7 7 8 8 8 8 9 9 9 9 9 9 9 9 9 9 9 9 9 10 10 10 10 9 8 7 6 5 5 5 5 3 3 4 5 5 6 8 10 8 5 7 10 7 5 5 7 9 10 10 11 11 11 12 11 11 11 11 11 11 11
16 14 14 14 13 11 11 12 12 11 10 8 7 7 5 5 5 5 5 5 5 6 7 8 8 8 8 8 8 8 9 9 9 9 10 10 10 10 10 10 10 10 10 11 11 11 11 10 10 9 8 7 5 4 3 2 2 4 5 4 5 7 8 9 8 7 15 9 4 4 6 8 9 10 11 12 11 12 12 12 12 11 11 12 12
15 14 14 14 13 11 11 11 10 9 8 7 6 6 5 5 5 5 5 5 7 8 8 9 8 7 7 7 8 8 9 9 10 10 11 11 11 11 10 10 10 11 12 12 12 11 11 11 11 11 9 7 5 4 2 1 1 3 4 4 5 6 7 8 9 8 15 10 4 2 5 7 9 10 11 11 11 12 13 12 11 12 12 12 13
13 13 14 13 12 12 12 10 9 8 8 8 7 6 5 5 4 5 6 7 8 8 8 8 7 7 7 7 8 8 9 10 10 11 11 11 10 10 10 11 11 12 12 11 11 11 11 11 11 10 9 7 5 3 2 1 1 1 2 2 3 4 5 7 7 5 7 8 6 3 4 6 8 10 10 10 11 11 12 11 10 11 12 13 13
13 13 13 11 11 11 11 9 8 8 8 8 7 6 5 4 5 6 6 7 7 7 8 8 8 8 8 8 8 9 10 10 10 10 10 10 10 11 11 11 12 12 12 11 11 11 10 11 10 9 9 8 7 5 4 3 2 1 1 1 2 3 4 5 5 5 3 5 8 4 3 5 6 8 8 9 10 10 10 10 10 10 10 12 12
13 12 12 10 10 10 9 8 7 8 8 7 6 6 5 5 6 6 7 8 8 8 9 9 9 9 9 10 10 10 10 10 10 10 10 10 10 11 11 11 11 11 11 11 10 11 11 10 10 9 8 8 8 7 6 5 3 3 3 3 4 3 4 5 5 5 5 1 5 4 1 4 5 6 7 7 8 9 8 9 9 9 9 10 11
13 12 11 10 9 9 8 7 6 7 7 6 6 6 6 6 7 8 8 9 9 9 10 10 11 10 10 11 11 11 10 11 11 11 11 11 11 11 11 10 10 10 10 9 9 10 10 9 8 8 7 7 7 6 6 6 6 5 4 4 5 4 4 6 7 5 3 2 5 6 5 3 4 4 5 5 6 7 7 7 8 8 7 8 9
12 12 12 10 9 8 7 6 6 6 6 6 6 7 8 9 9 9 9 9 9 9 10 10 10 10 11 11 11 11 11 12 12 11 11 12 12 12 12 12 11 11 10 9 9 9 9 8 8 7 7 6 6 6 6 6 7 7 6 5 6 7 5 6 7 6 5 5 8 9 7 4 3 3 3 4 4 5 6 6 7 7 6 6 6
11 12 12 10 9 7 5 5 4 4 5 6 7 8 9 10 10 9 8 8 9 10 10 10 11 11 11 10 10 11 12 11 11 11 11 11 12 12 13 13 13 13 12 11 10 9 8 8 7 7 6 6 7 7 7 7 8 9 8 6 7 8 7 7 7 6 5 5 7 7 7 6 4 3 2 2 2 3 4 4 5 7 6 5 4
10 11 11 10 8 6 4 3 3 4 4 5 6 8 9 10 10 9 9 9 10 11 11 12 12 12 11 11 11 11 11 10 11 11 11 11 11 12 12 12 13 14 14 14 12 11 9 8 7 6 5 6 7 7 7 8 9 10 10 8 7 8 9 9 6 5 6 6 8 7 7 9 6 4 3 2 2 1 2 3 4 5 6 4 3
10 10 9 9 8 5 3 2 3 4 4 4 5 7 8 8 8 8 9 9 10 10 11 12 11 11 12 12 11 11 10 10 10 10 10 11 11 11 11 12 13 15 16 15 14 13 11 9 8 7 6 5 6 7 7 7 9 11 12 10 8 8 10 10 7 6 7 7 9 9 9 10 9 5 4 4 4 2 1 1 2 3 4 4 3
11 10 9 8 6 5 4 4 5 5 5 4 4 6 6 6 7 8 8 8 8 9 11 12 12 12 13 12 11 11 10 9 8 9 9 11 11 10 10 11 13 16 17 15 15 16 13 11 9 8 7 6 5 6 6 7 9 10 12 12 9 8 10 11 9 9 9 9 10 9 8 7 8 7 5 5 6 5 3 1 1 1 2 3 3
12 10 9 7 6 5 6 7 6 6 4 3 4 5 5 5 6 7 7 7 7 9 11 12 12 13 13 13 13 12 10 9 8 9 9 11 12 9 8 9 12 15 15 13 15 16 14 13 12 10 9 7 6 5 5 7 9 11 12 12 11 10 10 11 11 11 12 12 10 8 7 7 8 9 9 8 8 7 6 3 2 1 1 1 2
13 11 10 8 7 7 8 9 8 6 5 3 4 6 5 4 5 7 8 8 8 9 11 11 11 11 13 13 13 12 9 9 9 8 8 10 11 8 6 8 11 13 12 11 12 13 13 13 12 10 10 9 8 6 5 6 8 10 11 12 11 11 11 12 13 12 12 13 12 10 10 11 12 12 12 12 10 9 9 6 4 3 3 2 2
14 12 10 10 9 8 11 12 11 9 7 6 6 6 6 5 6 8 10 10 10 10 10 10 9 10 12 12 11 10 9 9 8 7 6 7 8 7 5 7 9 10 10 10 10 11 11 11 11 10 10 11 11 9 7 6 7 8 10 11 10 10 11 13 14 14 15 15 14 13 12 12 13 14 15 14 13 11 10 9 6 5 5 4 3
13 12 10 10 10 10 13 14 12 10 8 8 8 8 8 8 9 10 11 12 12 12 11 11 10 9 10 11 10 9 9 9 7 5 4 5 6 6 6 7 8 8 9 10 9 9 9 9 10 10 11 11 11 11 9 7 6 7 8 8 9 11 12 12 13 15 16 17 16 15 14 13 13 14 15 15 15 13 12 11 8 7 7 6 5
11 11 11 11 11 13 15 14 12 9 7 8 10 10 9 8 8 9 12 13 12 12 12 12 10 9 10 10 10 9 8 8 6 4 3 4 6 6 6 6 7 7 8 8 8 8 9 10 11 11 12 12 12 11 10 9 7 6 7 9 10 13 14 14 14 14 14 16 18 18 16 15 14 14 14 14 15 15 13 12 11 9 9 8 7
11 10 10 10 12 14 14 13 12 8 7 9 9 11 11 9 8 9 10 11 11 10 11 11 10 10 11 11 9 8 8 8 7 7 7 7 7 7 7 7 7 7 7 7 7 8 9 10 11 12 13 13 13 11 9 9 8 7 8 10 12 13 14 15 15 15 13 14 17 19 19 16 14 15 15 14 15 16 15 14 12 11 11 9 8
12 9 8 9 11 12 12 12 12 9 8 8 8 10 10 9 10 11 11 10 9 9 9 8 9 9 10 10 9 8 9 9 9 9 10 10 10 9 8 9 9 8 7 7 8 9 9 9 10 12 13 13 13 11 9 8 8 8 9 11 12 12 13 15 15 15 15 15 16 18 20 18 15 13 14 15 16 17 16 15 14 13 12 11 9
11 9 9 10 11 11 9 11 12 9 8 8 7 7 8 8 9 10 10 9 8 8 8 8 7 7 8 9 8 7 9 10 9 9 9 9 8 8 8 9 9 9 8 8 9 9 10 10 11 12 13 13 12 10 9 9 9 10 10 11 12 13 13 14 14 15 16 15 15 16 19 20 17 13 14 15 16 18 17 16 15 15 13 12 11
10 9 9 10 11 11 11 13 13 11 9 7 7 7 8 9 9 8 7 7 8 8 8 8 7 7 7 8 7 6 8 10 9 8 8 7 7 7 8 8 9 10 9 9 9 10 10 10 11 11 12 13 13 12 10 10 11 13 13 13 13 13 13 13 13 14 15 14 13 14 16 18 18 15 14 14 14 17 18 18 17 16 15 13 12
10 9 8 8 9 11 13 14 14 13 10 7 7 7 8 9 8 6 6 8 8 7 8 9 9 8 8 9 9 7 8 10 9 8 8 8 8 8 9 10 11 11 11 11 12 12 12 12 11 11 11 12 13 14 13 12 11 13 14 13 12 11 11 12 11 13 14 13 11 12 14 15 17 16 15 15 15 16 18 19 18 17 16 14 13
8 6 6 7 8 9 11 14 14 12 10 8 8 8 8 8 8 7 7 8 8 7 7 9 10 9 9 10 10 10 9 9 9 9 9 9 9 9 10 11 12 12 12 12 13 14 15 14 13 13 13 13 13 14 15 15 13 12 12 12 11 10 9 9 10 11 13 13 10 10 12 13 16 17 17 17 17 18 19 20 19 18 17 16 15
7 6 5 7 8 8 10 12 13 11 9 7 6 7 7 8 8 9 8 6 4 5 7 8 9 10 10 10 11 11 11 10 9 10 10 10 10 10 11 11 12 12 13 14 15 15 16 15 15 15 15 15 15 15 16 17 16 14 13 12 10 9 9 11 12 12 13 14 13 11 11 13 15 17 18 18 18 18 19 19 20 19 18 17 17
7 6 6 7 8 9 9 9 9 9 8 7 6 6 7 7 9 10 9 6 4 6 8 9 10 11 11 11 11 11 11 10 10 10 10 11 11 12 13 13 14 14 15 15 16 16 16 16 14 14 14 15 15 15 15 16 16 16 14 13 11 11 12 15 16 15 15 16 15 14 14 14 15 16 18 18 19 19 19 19 19 20 20 20 19
7 7 7 7 7 8 8 7 7 6 6 6 6 6 7 7 9 10 10 9 8 9 11 12 12 13 13 12 12 12 12 12 11 11 11 12 12 13 14 15 16 17 17 17 17 16 16 15 14 13 13 13 14 14 14 14 14 14 15 15 14 13 14 16 17 17 17 18 17 17 18 17 16 17 18 20 21 20 20 20 20 20 21 22 22
8 8 7 7 7 7 7 6 5 5 5 5 6 6 6 7 8 9 9 10 11 12 13 13 13 14 14 13 13 13 13 13 13 12 12 12 13 14 15 17 17 18 18 17 17 16 15 15 14 14 14 15 15 15 14 13 13 13 13 14 15 15 15 16 17 18 17 18 19 18 19 19 18 19 20 21 22 23 23 22 22 22 22 23 23
7 7 7 6 6 6 6 6 5 6 6 6 6 5 5 6 7 7 8 9 11 13 13 14 14 14 14 14 14 14 14 13 13 13 13 13 13 14 16 17 18 18 17 17 17 16 16 15 14 14 15 16 16 16 16 15 15 15 15 15 16 17 18 18 18 18 17 16 18 18 19 20 20 22 24 24 22 24 26 26 25 25 25 24 25
5 6 6 5 5 5 5 5 6 6 6 6 6 5 5 5 6 6 7 8 10 12 13 14 14 14 15 15 15 15 14 14 14 13 13 13 14 15 16 17 17 18 18 18 18 18 17 17 16 15 15 16 16 17 17 18 18 18 17 17 18 19 20 21 21 20 17 14 16 18 19 20 20 22 26 26 24 24 26 28 29 29 28 26 26
4 5 5 4 4 5 5 5 6 6 6 6 5 5 5 4 5 6 6 8 9 11 12 13 14 14 15 16 15 14 13 13 13 13 13 14 15 15 16 16 17 18 18 19 19 19 19 19 18 18 18 17 17 18 19 20 20 21 20 20 19 19 20 21 21 21 19 16 16 18 21 22 23 23 24 25 26 26 26 29 30 31 30 27 27
4 4 4 4 4 5 5 5 5 6 5 5 5 5 5 5 5 6 7 8 9 10 11 12 14 14 14 15 14 14 13 13 13 13 14 14 14 14 15 16 17 18 18 19 19 19 19 20 20 19 20 20 19 18 19 20 20 21 22 21 21 20 20 20 21 21 21 19 17 18 21 24 25 26 25 25 26 26 27 29 30 30 30 29 29
4 3 3 3 3 4 4 4 4 5 5 5 5 5 5 6 6 6 6 7 8 9 9 10 12 13 13 13 13 13 13 13 14 14 14 14 14 15 15 16 17 18 18 18 18 19 19 19 20 20 20 20 21 21 20 20 21 21 22 22 21 21 20 20 21 21 21 21 20 19 21 24 26 27 27 25 26 26 27 29 29 29 29 29 30
3 3 3 3 2 3 2 2 3 4 5 5 5 5 6 6 7 7 7 8 8 9 9 9 10 11 12 12 12 12 12 13 13 13 13 14 15 15 16 17 17 18 19 19 19 19 19 19 20 20 20 20 20 21 22 22 22 22 22 22 22 21 21 20 19 20 20 21 21 21 22 23 24 26 28 27 27 27 28 30 30 30 30 30 31
3 2 2 2 2 2 2 2 3 4 5 5 5 6 6 7 7 8 8 8 9 9 9 9 10 11 11 11 11 12 12 12 12 12 13 14 15 15 16 17 17 18 19 20 20 20 20 20 19 20 21 21 20 20 21 22 22 22 23 23 23 23 22 20 19 18 19 20 21 22 23 23 23 24 25 28 29 28 29 31 32 31 31 31 32
2 2 2 3 3 3 2 3 3 4 4 4 5 6 6 7 7 7 7 8 8 8 8 9 9 10 11 11 11 11 12 12 12 13 13 14 15 15 16 17 18 18 19 19 19 20 22 22 21 21 21 21 21 21 22 22 22 23 24 25 25 25 24 23 22 19 19 20 21 22 23 23 24 23 23 26 29 30 31 32 32 31 32 33 34
3 3 4 4 3 2 2 2 2 2 2 3 4 4 5 6 6 7 7 7 7 7 8 8 8 9 10 11 12 13 13 14 14 14 14 14 15 16 16 17 18 19 19 19 19 20 22 22 23 22 22 22 21 21 22 23 24 23 24 24 26 26 26 25 25 23 22 22 22 21 22 22 23 23 23 25 28 31 34 35 35 34 34 34 34
5 5 4 4 2 1 1 1 1 2 2 2 2 3 4 5 6 7 7 7 8 8 8 9 9 10 11 13 14 15 16 16 17 17 17 16 17 17 18 18 19 20 21 20 20 21 21 22 23 23 23 23 23 23 23 24 25 25 25 24 25 26 25 26 27 27 25 24 24 23 22 22 22 22 24 27 29 30 33 35 35 35 36 35 33
6 6 5 4 3 2 2 3 3 4 4 4 5 5 6 7 8 8 9 10 10 10 10 11 11 12 12 13 15 16 17 18 18 18 19 18 18 19 20 20 20 21 22 22 22 22 22 22 23 24 25 25 26 26 26 26 27 27 27 26 25 26 26 26 27 27 27 25 24 24 23 23 23 23 24 26 29 31 33 35 36 36 37 37 34
7 7 7 6 4 4 4 5 5 6 7 7 8 8 9 9 10 11 12 12 13 13 13 13 13 14 14 15 16 17 18 18 19 20 20 20 21 21 21 21 22 22 23 23 23 24 23 23 24 25 26 27 28 29 28 28 29 30 29 29 28 27 28 28 26 26 27 27 25 24 24 23 23 24 24 26 28 30 32 34 37 38 37 37 35
8 8 8 8 7 7 7 8 8 8 9 10 10 10 11 12 12 12 13 13 14 14 14 15 15 15 15 16 17 18 19 20 21 22 22 23 23 23 23 23 23 24 24 25 26 26 25 25 25 25 26 28 29 30 29 30 31 31 31 32 31 30 30 30 27 26 26 27 27 26 25 24 24 24 25 26 27 29 31 32 35 37 38 39 38
10 10 10 10 10 10 11 11 10 10 11 12 12 12 12 13 14 14 14 14 14 15 15 15 16 16 17 17 18 19 20 21 23 24 24 25 25 25 24 24 25 25 26 27 28 28 28 28 27 27 27 28 30 30 31 31 32 32 33 34 34 33 32 32 30 29 27 28 29 30 29 27 26 26 26 26 26 27 29 31 32 34 37 40 40
11 11 12 13 13 13 14 14 13 13 13 13 13 13 14 15 16 17 17 16 16 17 17 17 18 18 19 19 20 21 21 22 23 24 25 26 26 26 26 26 26 26 26 27 28 29 30 30 30 29 29 29 30 31 31 32 33 33 34 35 36 36 35 34 33 32 31 30 30 32 32 30 29 30 29 28 27 27 28 29 31 33 36 38 40
13 13 14 15 15 15 15 16 15 15 15 14 14 15 16 17 19 19 19 19 19 19 19 20 20 20 21 21 22 22 22 23 24 25 26 26 26 26 26 26 26 26 27 28 29 30 31 31 31 31 31 31 31 31 32 33 34 34 35 36 37 37 37 36 34 34 34 34 34 35 33 31 30 32 33 32 30 30 30 30 30 31 34 37 39
16 16 16 17 17 17 17 17 18 18 17 17 17 17 18 20 21 22 22 21 21 20 20 21 21 21 21 22 23 24 25 26 26 27 26 26 26 26 26 26 26 26 27 28 29 30 31 31 32 32 32 33 33 33 33 34 35 36 37 37 37 38 37 37 36 36 36 36 37 36 34 32 31 31 33 34 33 33 33 34 33 31 32 35 38
Wind_Direction
105 103 99 95 96 94 94 93 94 97 97 99 95 87 80 77 77 79 83 82 79 83 82 77 75 77 81 86 87 88 91 91 92 93 94 96 97 102 106 109 111 112 110 107 101 93 82 70 63 62 65 75 90 94 96 95 91 83 75 78 80 94 103 96 99 96 95 100 99 98 95 93 91 90 89 88 87 86 86 86 88 93 96 98 102
104 104 98 94 95 93 93 92 98 100 99 99 89 83 81 75 77 80 83 81 79 83 84 82 80 79 79 81 83 86 89 91 92 91 92 93 95 97 100 103 104 103 102 98 94 88 74 56 50 51 54 66 83 94 103 105 98 87 75 78 83 96 98 96 111 108 107 114 108 104 97 92 90 90 91 88 87 87 84 83 83 86 87 90 94
106 103 97 96 96 94 94 94 101 100 93 90 84 85 84 77 80 83 85 84 82 82 81 81 81 78 77 79 80 83 84 84 83 82 83 83 85 84 85 87 85 84 81 81 77 69 59 43 37 43 44 57 81 97 107 106 93 82 72 76 78 84 91 99 120 112 109 114 104 100 96 94 92 92 94 92 91 90 87 85 84 85 84 85 87
105 103 98 98 101 95 95 98 96 90 81 79 82 86 85 78 79 81 83 84 82 81 77 75 77 76 77 80 80 79 77 75 73 73 75 75 76 75 72 69 66 67 65 65 56 48 45 34 23 28 33 45 74 93 99 94 90 82 76 88 83 81 92 107 122 112 112 109 95 93 94 96 95 95 97 95 92 90 87 84 83 84 85 85 85
100 102 95 93 101 92 93 96 88 82 76 74 77 81 81 73 73 74 75 76 77 78 77 75 77 80 80 78 76 75 73 73 70 67 67 67 66 64 61 55 53 55 56 54 48 45 41 32 14 18 18 30 63 79 82 75 85 82 79 90 72 68 80 106 122 124 130 107 83 85 91 98 97 97 98 95 89 86 83 81 78 79 85 87 87
101 103 94 90 95 86 84 88 83 80 77 72 72 75 75 71 72 75 75 77 80 82 82 81 78 78 76 70 67 67 67 66 64 64 62 59 56 49 42 37 36 37 42 44 42 40 36 29 13 5 354 5 45 72 83 70 70 68 64 72 53 45 51 92 125 136 149 114 83 78 85 97 97 95 93 90 84 82 80 78 77 76 83 87 92
105 103 98 97 96 84 79 83 82 80 77 73 71 70 70 72 75 81 84 83 84 81 75 71 69 67 65 61 60 62 60 57 57 57 51 46 41 33 28 24 23 24 27 30 32 30 26 20 11 1 352 359 27 64 89 80 61 51 34 34 35 32 33 75 127 146 156 131 98 71 76 92 93 91 85 82 79 77 77 77 77 78 82 86 91
109 108 108 107 99 90 85 85 84 79 75 72 73 71 72 76 73 77 82 81 79 74 64 53 50 48 50 52 52 56 55 52 48 45 40 35 34 28 22 19 17 15 15 18 21 21 20 19 15 8 358 359 15 47 83 82 64 51 30 13 20 20 22 55 96 162 162 145 120 71 69 87 87 84 80 77 74 74 75 76 77 79 84 86 86
113 113 112 107 100 96 92 88 83 80 78 78 80 80 78 74 67 65 66 66 60 54 48 42 41 40 41 44 45 49 51 48 42 38 36 33 30 25 20 15 11 9 9 11 12 12 13 17 19 17 9 4 7 19 54 72 74 67 45 11 13 4 4 30 42 141 158 150 136 86 69 83 82 78 77 76 72 72 74 76 79 82 85 88 87
116 111 105 102 102 104 99 93 89 90 92 91 87 84 77 66 61 54 47 41 38 37 35 37 40 37 36 40 42 46 47 44 39 35 33 30 26 21 17 11 8 7 8 9 6 5 5 11 17 19 17 12 5 357 10 24 83 85 66 23 12 2 355 6 27 108 153 159 162 139 77 76 77 72 74 76 73 71 73 76 78 82 84 86 86
120 110 106 104 103 104 104 101 100 100 97 91 85 81 75 66 53 41 35 29 29 28 29 34 37 35 32 34 35 38 40 39 35 31 28 24 19 17 13 8 6 6 6 5 2 360 359 3 9 12 14 14 8 351 327 306 309 109 97 46 0 354 356 358 14 72 146 180 194 168 79 66 71 70 71 75 74 70 70 74 76 78 81 82 83
123 114 111 109 101 98 100 103 102 100 93 89 85 78 73 61 43 31 28 25 25 24 24 27 31 31 27 24 23 26 29 29 27 23 21 15 12 12 10 7 5 3 0 358 355 352 352 355 1 2 2 4 4 357 330 315 318 278 245 302 330 341 344 3 12 24 55 200 212 187 76 53 64 69 70 75 75 70 69 74 77 77 79 82 85
126 117 110 103 96 93 95 98 98 97 91 86 80 69 58 43 31 25 22 20 19 18 17 16 17 18 14 11 11 14 16 18 17 14 11 7 6 6 6 6 5 2 358 356 351 347 346 347 351 351 349 351 355 358 343 327 313 286 291 296 309 334 327 347 357 359 22 248 228 225 337 26 47 66 70 74 77 74 72 76 80 81 81 84 88
132 119 105 98 97 98 100 101 102 99 89 77 63 46 36 28 26 22 19 18 15 12 11 9 8 7 5 3 3 3 7 9 8 5 2 359 358 358 358 0 1 358 355 356 354 350 346 339 337 335 334 338 340 343 339 325 307 286 279 284 288 305 319 327 332 337 350 315 276 270 279 335 16 54 68 71 81 78 75 79 84 88 87 90 93
136 118 104 99 101 105 107 105 100 93 80 63 46 30 24 20 21 19 17 17 14 13 11 9 8 8 5 2 359 359 3 4 2 358 355 352 350 348 348 350 352 349 345 344 346 348 346 337 325 315 316 322 319 315 316 314 308 299 284 272 273 278 285 298 310 325 320 306 297 283 273 282 334 20 63 66 82 83 77 79 85 90 91 96 100
134 119 108 106 106 110 114 109 97 81 65 48 33 22 19 16 14 12 13 14 16 16 11 8 4 3 0 357 356 357 359 354 349 348 346 343 340 340 341 344 343 339 333 329 329 331 336 339 330 312 299 298 301 302 304 305 302 300 295 284 273 270 267 269 282 302 297 297 292 277 276 273 290 328 4 42 64 83 79 78 82 91 95 100 109
131 125 118 117 116 119 121 114 91 63 48 36 26 18 15 13 11 7 9 11 14 14 8 3 357 355 352 350 350 349 347 340 340 341 338 333 331 333 333 334 333 328 324 322 319 318 324 335 341 334 309 287 285 290 295 302 299 294 293 289 280 272 266 264 266 278 276 280 273 260 281 273 259 291 311 333 342 44 77 79 78 89 98 107 119
132 134 131 129 128 130 131 109 73 58 43 33 30 22 11 4 4 2 1 4 8 9 7 3 358 358 355 353 352 347 340 337 339 336 333 330 328 331 326 323 323 321 318 318 317 315 318 326 337 343 332 304 278 272 275 287 292 289 289 289 287 280 273 268 258 253 256 262 266 262 278 267 237 244 285 298 300 304 321 81 74 82 97 110 125
127 130 132 132 132 140 134 98 79 73 57 36 35 30 15 1 2 0 355 356 4 8 6 5 4 360 353 351 354 349 342 342 340 335 337 331 325 325 321 317 319 319 316 315 318 320 322 327 333 336 332 328 307 284 274 272 277 280 284 286 288 287 281 276 264 252 247 248 261 267 273 257 226 231 261 280 282 282 277 259 87 76 100 114 126
121 121 123 131 134 132 115 92 87 94 84 57 45 45 29 9 15 15 5 3 6 6 8 9 6 358 350 352 354 347 341 346 350 345 346 340 333 325 313 315 324 327 323 319 323 327 331 336 338 336 329 325 322 313 293 275 272 273 277 283 288 289 284 280 275 263 255 253 255 258 262 260 254 253 253 259 269 272 269 261 244 247 228 164 145
119 118 122 134 135 122 106 95 94 99 104 93 61 52 37 25 41 37 26 23 13 7 11 12 8 1 358 1 360 353 350 356 359 352 346 348 350 340 313 310 323 332 333 327 329 335 340 343 345 344 337 327 318 315 309 288 277 273 274 283 289 288 286 283 279 270 260 256 249 245 253 259 266 267 257 250 255 264 265 259 246 245 246 229 196
122 122 127 131 130 117 104 100 99 94 90 88 76 54 36 49 72 55 41 39 28 18 14 9 6 2 5 8 5 4 11 19 15 3 349 346 350 341 317 308 315 328 337 335 336 341 345 345 345 346 340 332 325 318 311 302 287 275 274 284 293 295 294 288 282 275 265 258 251 244 247 250 254 261 258 248 245 255 260 256 247 243 245 239 228
128 125 123 117 114 110 102 97 93 87 78 72 65 49 41 60 76 61 50 44 32 25 20 15 10 4 11 18 17 13 22 34 35 22 351 329 324 320 317 315 316 326 335 335 333 335 340 336 335 337 332 326 325 322 314 304 293 277 267 273 294 307 305 295 287 283 272 260 254 246 245 245 244 247 251 248 244 244 250 252 246 240 242 239 235
132 122 119 109 104 105 103 95 84 81 73 63 55 52 52 59 65 55 48 42 30 22 23 22 15 7 18 28 26 25 28 35 34 18 346 321 316 317 319 320 323 329 330 328 323 322 324 322 324 329 327 321 317 317 314 305 296 280 262 262 285 300 301 295 286 286 281 265 257 250 246 244 240 238 242 249 242 234 238 245 242 238 239 237 234
125 123 121 111 106 103 99 94 86 82 73 63 55 56 54 43 41 40 37 36 30 18 16 19 14 6 15 29 28 28 35 32 21 5 353 343 333 326 324 327 335 338 334 332 329 326 323 321 325 331 330 324 315 310 309 303 297 286 275 273 282 291 293 291 283 280 282 274 263 252 245 242 240 237 239 243 235 228 231 237 238 236 234 235 230
122 123 114 102 109 108 102 99 97 98 87 77 67 61 56 41 35 35 31 30 30 22 17 18 15 5 10 28 30 28 35 31 19 7 358 350 340 332 330 334 343 347 346 346 342 337 335 334 337 341 337 330 319 307 302 299 294 288 283 281 283 286 290 290 282 276 277 279 273 256 244 240 238 237 237 239 233 227 231 234 237 236 232 231 227
125 119 101 87 97 104 98 93 96 101 93 86 81 65 55 51 42 34 31 32 32 28 25 22 19 6 5 24 33 32 33 29 21 11 2 353 343 338 340 345 351 354 353 349 345 342 344 347 348 347 342 338 331 317 306 303 302 297 292 289 290 292 293 290 279 272 273 278 279 263 247 241 240 239 237 239 235 230 234 237 237 239 235 230 226
119 109 94 82 83 88 87 88 93 97 93 83 76 59 48 54 49 29 23 31 34 30 25 23 24 14 6 21 33 30 23 20 19 16 12 4 356 351 352 358 1 2 2 0 359 358 357 356 356 354 348 344 342 336 325 313 309 306 303 300 300 299 298 294 278 269 271 274 281 269 251 245 243 239 235 233 232 233 239 240 238 240 240 234 227
109 101 92 84 82 82 87 92 92 91 89 80 73 66 51 50 46 31 27 34 34 31 25 24 31 31 25 28 33 29 16 12 13 16 16 13 11 6 4 6 7 9 10 10 10 8 6 4 2 1 356 350 346 343 339 331 319 309 305 305 307 305 302 298 280 268 268 270 278 267 251 243 237 234 231 228 231 240 244 242 240 240 242 241 233
110 107 95 93 94 86 88 92 91 87 85 77 71 68 53 44 38 31 38 41 38 40 37 29 31 35 35 38 42 42 33 22 17 15 14 13 13 10 10 11 11 13 14 12 10 7 5 3 1 359 357 354 351 348 347 347 342 328 314 310 312 310 307 308 295 275 267 264 267 262 250 240 230 225 225 225 229 238 242 241 240 239 242 245 240
124 127 115 106 104 94 88 89 93 96 97 90 76 67 51 39 28 24 36 48 46 48 49 40 31 33 37 43 49 49 44 37 27 20 17 15 10 7 10 14 14 14 14 12 8 6 3 1 359 354 351 351 352 352 351 353 354 347 333 321 312 303 299 304 302 287 271 264 264 265 261 250 234 226 225 224 224 229 233 235 237 237 239 244 244
119 126 123 110 101 95 90 87 94 101 102 97 79 59 41 31 22 22 31 44 52 43 42 40 33 34 38 39 43 44 42 38 32 25 20 16 9 6 8 11 12 11 11 11 7 4 2 1 358 351 346 344 347 350 351 353 355 352 345 333 318 301 293 295 294 287 274 267 265 263 258 250 236 230 232 232 230 229 231 233 234 236 238 241 243
108 112 111 101 91 91 90 86 90 88 82 77 66 48 34 27 20 22 27 32 41 40 36 37 35 36 37 37 36 35 35 33 29 25 20 15 10 7 6 8 10 9 9 8 5 2 360 358 354 348 343 341 342 347 351 352 352 350 345 338 329 317 305 299 295 290 278 266 264 262 256 248 238 233 235 237 239 238 236 236 237 236 236 238 241
108 107 102 95 88 89 89 82 73 64 55 49 48 41 32 28 24 27 28 29 34 35 32 34 36 34 35 36 35 32 30 27 25 23 20 15 11 7 6 7 8 8 8 6 3 359 357 355 352 347 344 341 341 344 346 345 344 342 338 333 328 323 315 309 303 300 290 268 259 262 262 252 241 236 237 238 241 245 244 241 240 239 236 236 238
109 106 101 99 97 90 85 77 62 50 41 34 36 32 23 21 22 27 32 33 35 36 32 31 32 30 30 33 32 30 27 23 20 19 18 14 11 8 6 6 6 6 5 4 1 359 356 355 355 351 347 343 341 342 342 338 336 334 332 328 323 319 316 313 310 307 302 277 254 255 263 255 243 239 241 239 237 244 248 246 242 241 237 234 234
106 99 97 95 89 81 74 69 63 54 45 38 33 30 24 11 10 19 30 36 37 37 35 32 31 27 27 28 28 26 22 19 17 15 15 13 11 8 6 4 3 2 1 0 359 358 356 355 355 352 349 346 344 342 339 334 332 330 329 326 322 318 315 314 312 308 305 286 258 252 258 258 252 246 243 240 234 237 245 246 242 241 238 234 233
99 87 85 80 70 66 63 59 61 57 51 47 37 31 29 8 3 19 30 31 31 33 34 32 30 27 25 24 23 21 18 15 13 12 11 12 11 7 4 2 359 358 357 357 357 355 353 353 353 351 348 348 347 343 338 333 330 329 328 327 324 320 316 313 310 307 303 292 270 257 256 260 261 257 251 245 239 237 241 243 240 238 238 236 235
98 85 76 71 67 66 63 57 55 53 48 48 42 33 27 16 12 21 23 21 22 25 27 28 27 26 23 20 18 14 12 9 8 9 8 8 6 3 2 360 357 354 352 352 352 350 348 348 348 348 346 346 345 343 338 334 332 331 330 329 327 323 318 312 309 305 300 293 279 264 257 256 259 261 259 252 246 242 239 238 237 236 234 233 235
98 86 77 75 74 75 73 61 52 47 45 44 39 32 26 20 17 19 18 15 17 21 24 25 24 24 21 17 13 9 7 4 3 4 2 360 358 358 358 357 355 351 347 346 345 343 342 341 341 342 343 344 343 342 340 338 337 335 333 331 329 325 321 316 312 306 299 292 283 273 262 256 254 255 257 256 252 247 241 238 236 234 231 231 233
98 88 87 93 97 102 101 71 52 48 49 44 36 29 24 21 16 16 16 14 15 17 19 21 18 19 18 12 7 4 2 360 358 357 354 351 351 351 351 352 352 348 343 342 342 339 335 334 335 334 336 339 341 340 339 339 339 337 334 332 330 327 325 322 317 310 301 293 286 278 269 262 257 254 252 251 250 248 245 242 237 234 234 237 237
112 111 114 127 139 132 111 79 60 51 50 44 35 28 24 24 20 18 19 17 17 17 17 15 11 10 11 7 1 358 356 354 352 348 346 345 344 344 344 345 345 342 339 340 342 336 328 328 329 329 329 332 335 334 333 334 335 335 334 333 331 331 330 326 322 317 307 296 288 280 273 266 261 256 251 248 247 245 245 243 239 237 240 244 245
139 148 149 155 153 132 102 76 65 57 55 49 39 30 26 28 26 24 25 24 22 21 20 14 7 3 1 0 357 352 349 348 346 344 342 340 338 337 337 337 336 334 333 335 337 331 326 326 327 324 323 324 326 326 325 325 328 331 333 333 332 333 332 328 326 323 313 302 293 284 278 271 266 261 255 251 247 242 241 242 241 239 238 243 246
171 175 170 173 162 128 93 67 59 54 51 50 41 27 20 17 18 22 22 22 20 19 20 14 6 359 355 354 352 348 346 345 344 341 340 337 335 333 331 330 328 326 326 329 330 326 325 327 325 321 318 318 318 318 318 318 321 325 328 331 331 331 331 330 327 324 317 310 304 296 287 279 274 269 261 257 254 247 243 244 245 242 239 243 246
185 193 189 192 188 142 40 8 358 349 350 4 3 356 353 348 354 0 360 0 0 1 3 0 356 353 350 348 347 346 343 342 341 339 337 335 333 330 328 327 326 323 323 325 324 322 323 323 320 316 315 315 313 311 313 314 316 319 321 323 327 328 328 329 328 325 322 318 313 307 299 291 285 278 268 262 261 258 253 251 252 252 247 246 247
201 204 208 212 218 240 285 296 303 310 312 320 324 322 324 328 334 336 337 338 339 340 341 341 341 340 341 340 339 339 338 336 336 334 332 332 330 329 328 327 325 323 322 322 320 319 319 318 315 315 315 314 311 310 314 316 316 316 316 317 321 322 321 324 327 327 325 322 317 312 307 301 294 287 277 268 264 261 258 256 258 260 255 250 248
223 218 223 229 237 251 270 280 287 298 304 308 310 311 316 324 329 328 326 326 326 326 327 327 328 329 331 332 332 332 332 331 330 328 327 327 326 326 325 325 324 323 322 320 319 317 316 315 313 314 314 312 310 311 314 316 315 315 316 316 317 316 315 319 325 328 327 324 320 313 305 300 295 290 284 277 270 265 261 257 257 261 261 258 254
242 237 240 246 253 258 265 271 276 287 293 295 299 303 313 320 321 318 315 315 315 315 316 317 317 320 322 325 327 328 328 328 327 326 325 323 322 321 321 321 322 322 322 320 319 317 315 313 312 312 312 310 309 310 312 313 313 315 317 316 314 313 314 317 322 325 327 325 322 316 306 297 291 289 286 282 278 273 268 263 258 257 258 260 258
250 248 252 257 260 263 265 267 269 275 280 284 290 296 304 310 308 306 305 304 304 305 306 307 309 311 314 316 320 322 324 325 325 324 322 320 318 317 317 318 319 320 320 320 318 317 315 314 312 312 311 309 309 309 310 310 311 314 315 314 313 313 315 317 319 321 324 324 322 319 313 304 293 286 283 281 280 278 274 269 264 259 255 255 256
251 252 254 256 259 263 264 264 264 266 269 276 284 291 297 299 298 298 299 299 299 301 303 304 306 307 309 310 313 316 318 320 320 320 319 318 316 314 314 314 315 317 318 318 317 316 315 314 313 312 310 309 308 308 308 308 310 312 313 312 313 313 315 316 317 318 320 321 321 319 316 311 301 290 284 279 276 275 273 270 267 263 258 254 252
252 254 254 256 258 259 259 260 261 261 264 270 276 284 289 292 293 295 297 299 300 300 301 303 305 306 307 309 311 313 314 315 317 317 317 316 314 312 311 311 312 314 315 316 316 315 314 313 312 311 309 308 307 307 307 307 308 310 311 311 312 313 314 315 315 315 316 317 319 318 315 311 304 294 287 284 279 275 272 270 266 263 261 257 252
253 255 256 258 259 259 260 261 263 263 265 269 273 278 282 286 293 297 298 299 298 298 299 300 302 304 306 308 309 311 312 313 314 314 315 313 311 309 308 309 310 311 313 314 315 314 313 312 311 310 309 308 308 308 307 307 308 309 310 311 311 312 313 313 313 313 314 315 318 318 315 310 303 294 287 283 281 278 274 270 268 265 262 259 255